This demonstration page uses our WeatherBlox Daily Observations layout. Learn more.

Left ArrowRight Arrow

Hourly Observations for August 27, 2018

Temp ( °F °C ) Dew Point ( °F °C ) Humidity (%) Winds ( mph kmh ) Pressure ( in mb ) Visibility ( mi km ) Precip ( " mm )
12:15 am 00:15 Clear 75 24 74 23.6 98 98 S 7 11 30.03 1017 7 11 0.00 0.00
12:35 am 00:35 Clear 75 23.9 74 23.5 98 98 S 8 13 30.03 1017 7 11 0.00 0.00
12:55 am 00:55 Clear 75 23.7 74 23.3 98 98 S 8 13 30.03 1017 7 11 0.00 0.00
1:15 am 01:15 Clear 74 23.5 74 23.1 98 98 S 7 11 30.03 1017 7 11 0.00 0.00
1:35 am 01:35 Clear 74 23.3 73 23 98 98 SSW 8 13 30.03 1017 7 11 0.00 0.00
1:55 am 01:55 Clear 74 23.1 73 22.8 98 98 SSW 9 15 30.03 1017 7 11 0.00 0.00
2:15 am 02:15 Clear 73 23 73 22.6 98 98 SSW 8 13 30.03 1017 7 11 0.00 0.00
2:35 am 02:35 Clear 73 23 72 22.3 96 96 SSW 8 13 30.03 1017 7 11 0.00 0.00
2:55 am 02:55 Clear 73 22.9 72 22.2 96 96 SSW 6 9 30.03 1017 7 11 0.00 0.00
3:15 am 03:15 Clear 73 22.5 72 22 97 97 S 7 11 30.03 1017 7 11 0.00 0.00
3:35 am 03:35 Clear 73 22.5 72 22.1 98 98 SSW 7 11 30.03 1017 7 11 0.00 0.00
3:55 am 03:55 Clear 73 22.5 72 22.1 98 98 SSW 8 13 30.03 1017 7 11 0.00 0.00
4:15 am 04:15 Clear 73 22.5 72 22.1 98 98 SSW 8 13 30.03 1017 7 11 0.00 0.00
4:35 am 04:35 Clear 73 22.5 72 22 97 97 SSW 8 13 30.03 1017 7 11 0.00 0.00
4:55 am 04:55 Clear 72 22.2 72 22 99 99 S 8 13 30.03 1017 7 11 0.00 0.00
5:15 am 05:15 Clear 72 22.1 72 22 99 99 S 7 11 30.03 1017 7 11 0.00 0.00
5:35 am 05:35 Clear 72 22.1 72 22 99 99 S 7 11 30.03 1017 7 11 0.00 0.00
5:55 am 05:55 Clear 72 22 72 22 100 100 SSW 6 9 30.03 1017 7 11 0.00 0.00
6:15 am 06:15 Clear 72 22 72 22 100 100 SSW 8 13 30.03 1017 7 11 0.00 0.00
6:35 am 06:35 Clear 72 22.1 72 22 99 99 SSW 8 13 30.03 1017 7 11 0.00 0.00
6:55 am 06:55 Clear 72 22.1 72 22 99 99 SSW 8 13 30.03 1017 7 11 0.00 0.00
7:15 am 07:15 Sunny 72 22.3 72 22 98 98 SSW 9 15 30.03 1017 7 11 0.00 0.00
7:35 am 07:35 Sunny 72 22.3 72 22 98 98 SSW 8 13 30.03 1017 7 11 0.00 0.00
7:55 am 07:55 Sunny 73 22.5 72 22.1 98 98 SSW 7 11 30.03 1017 7 11 0.00 0.00
8:15 am 08:15 Sunny 73 22.7 72 22.2 97 97 S 7 11 30.03 1017 7 11 0.00 0.00
8:35 am 08:35 Sunny 74 23.2 73 22.5 96 96 S 7 11 30.03 1017 7 11 0.00 0.00
8:55 am 08:55 Sunny 74 23.6 73 22.8 95 95 S 8 13 30.03 1017 7 11 0.00 0.00
9:15 am 09:15 Sunny 75 24.1 73 23 94 94 S 9 15 30.03 1017 7 11 0.00 0.00
9:35 am 09:35 Sunny 77 24.8 74 23.1 90 90 SSW 8 13 30.03 1017 10 16 0.00 0.00
9:55 am 09:55 Sunny 78 25.4 74 23.4 89 89 SSW 8 13 30.03 1017 10 16 0.00 0.00
10:15 am 10:15 Sunny 79 26 74 23.6 87 87 SW 9 15 30.03 1017 10 16 0.00 0.00
10:35 am 10:35 Sunny 80 26.6 74 23.6 84 84 SW 13 20 30.03 1017 10 16 0.00 0.00
10:55 am 10:55 Sunny 81 27 74 23.4 81 81 SW 15 24 30.03 1017 10 16 0.00 0.00
11:15 am 11:15 Sunny 81 27.2 75 23.7 81 81 SW 14 22 30.06 1018 10 16 0.00 0.00
11:35 am 11:35 Sunny 82 27.7 75 24 80 80 SW 14 22 30.03 1017 10 16 0.00 0.00
11:55 am 11:55 Partly Cloudy 82 28 75 23.8 78 78 SSW 14 22 30.03 1017 10 16 0.00 0.00
12:15 pm 12:15 Partly Cloudy 83 28.5 75 23.7 75 75 SW 13 20 30.03 1017 10 16 0.00 0.00
12:35 pm 12:35 Partly Cloudy 83 28.5 74 23.5 74 74 SW 12 19 30.03 1017 10 16 0.00 0.00
12:55 pm 12:55 Partly Cloudy 83 28.6 73 22.9 71 71 SW 15 24 30.03 1017 10 16 0.00 0.00
1:15 pm 13:15 Partly Cloudy 84 28.9 73 22.9 70 70 SW 12 19 30.03 1017 10 16 0.00 0.00
1:35 pm 13:35 Partly Cloudy 85 29.2 75 23.9 73 73 SW 10 17 30.03 1017 10 16 0.00 0.00
1:55 pm 13:55 Partly Cloudy 83 28.5 74 23.2 73 73 WSW 12 19 30.03 1017 10 16 0.00 0.00
2:15 pm 14:15 Partly Cloudy 85 29.6 74 23.5 70 70 SW 14 22 30.03 1017 10 16 0.00 0.00
2:35 pm 14:35 Partly Cloudy 85 29.7 74 23.6 70 70 SSW 13 20 30.03 1017 10 16 0.00 0.00
2:55 pm 14:55 Partly Cloudy 85 29.7 75 23.7 70 70 SSW 12 19 30.03 1017 10 16 0.00 0.00
3:15 pm 15:15 Partly Cloudy 86 30 74 23.6 69 69 SSW 12 19 30.03 1017 10 16 0.00 0.00
3:35 pm 15:35 Partly Cloudy 85 29.7 73 23 67 67 SSW 15 24 30.03 1017 10 16 0.00 0.00
3:55 pm 15:55 Partly Cloudy 85 29.7 73 22.8 66 66 SSW 15 24 30.03 1017 10 16 0.00 0.00
4:15 pm 16:15 Partly Cloudy 86 30.1 73 22.9 65 65 SSW 15 24 30.00 1016 10 16 0.00 0.00
4:35 pm 16:35 Partly Cloudy 86 30.1 73 22.7 65 65 S 14 22 30.00 1016 10 16 0.00 0.00
4:55 pm 16:55 Sunny 86 30 73 22.5 64 64 SSW 13 20 30.00 1016 10 16 0.00 0.00
5:15 pm 17:15 Sunny 86 29.9 72 22.3 64 64 SSW 15 24 30.00 1016 10 16 0.00 0.00
5:35 pm 17:35 Sunny 86 29.8 72 22.3 64 64 SW 14 22 30.00 1016 10 16 0.00 0.00
5:55 pm 17:55 Sunny 85 29.6 72 22 64 64 SSW 12 19 30.00 1016 10 16 0.00 0.00
6:15 pm 18:15 Sunny 85 29.5 72 22.1 64 64 SSW 13 20 30.00 1016 10 16 0.00 0.00
6:35 pm 18:35 Partly Cloudy 84 29 72 22.3 67 67 S 9 15 30.00 1016 10 16 0.00 0.00
6:55 pm 18:55 Sunny 83 28.6 72 22.4 69 69 SSW 8 13 30.00 1016 10 16 0.00 0.00
7:15 pm 19:15 Sunny 83 28.3 72 22.1 69 69 S 13 20 29.97 1015 10 16 0.00 0.00
7:35 pm 19:35 Sunny 82 27.9 71 21.9 70 70 SSW 13 20 29.97 1015 10 16 0.00 0.00
7:55 pm 19:55 Partly Cloudy 81 27.2 72 22.2 74 74 S 12 19 29.97 1015 10 16 0.00 0.00
8:15 pm 20:15 Sunny 81 27.1 72 22 74 74 S 10 17 29.97 1015 10 16 0.00 0.00
8:35 pm 20:35 Clear 79 26.3 72 22.3 79 79 S 10 17 29.97 1015 10 16 0.00 0.00
8:55 pm 20:55 Clear 80 26.5 72 22.2 77 77 S 12 19 29.97 1015 10 16 0.00 0.00
9:15 pm 21:15 Clear 79 26 72 22.1 79 79 S 9 15 29.97 1015 10 16 0.00 0.00
9:35 pm 21:35 Clear 79 26.1 72 22.1 79 79 S 12 19 29.97 1015 10 16 0.00 0.00
9:55 pm 21:55 Clear 79 25.9 72 22 79 79 S 10 17 29.97 1015 10 16 0.00 0.00
10:15 pm 22:15 Clear 78 25.7 72 22 80 80 S 10 17 30.00 1016 10 16 0.00 0.00
10:35 pm 22:35 Clear 78 25.5 72 22 81 81 S 12 19 30.00 1016 10 16 0.00 0.00
10:55 pm 22:55 Clear 78 25.3 72 22 82 82 S 10 17 30.00 1016 10 16 0.00 0.00
11:15 pm 23:15 Clear 77 25.1 72 22 83 83 S 9 15 30.00 1016 10 16 0.00 0.00
11:35 pm 23:35 Clear 77 25 71 21.8 82 82 S 9 15 30.00 1016 10 16 0.00 0.00
11:55 pm 23:55 Clear 76 24.6 71 21.8 84 84 S 10 17 30.00 1016 10 16 0.00 0.00

Powered by AerisWeather